, TX

(GMT )
Boomvang

Weather History for KVAF - December, 2013

Change the Weather History Date:

Tuesday, December 10, 2013

  Actual Average Record
Temperature  
Mean Temperature 58 °F -  
Max Temperature 62 °F - - ()
Min Temperature 55 °F - - ()
Degree Days  
Heating Degree Days 6    
Growing Degree Days 8 (Base 50)    
Moisture  
Dew Point 51 °F    
Average Humidity 77    
Maximum Humidity 94    
Minimum Humidity 63    
Precipitation  
Precipitation 0.00 in - - ()
Sea Level Pressure  
Sea Level Pressure 30.26 in    
Wind  
Wind Speed 19 mph (NE)    
Max Wind Speed 25 mph    
Max Gust Speed 38 mph    
Visibility 9 miles    
Events      
T = Trace of Precipitation, MM = Missing Value Source: NWS Daily Summary

Daily Weather History Graph

Daily Weather History Graph

Search for Another Location

Airport or City:

Trip Planner

Search our weather history database for the weather conditions in past years. The results will help you decide how hot, cold, wet, or windy it might be!

Date:

Astronomy

Dec. 10, 2013 Rise Set
Actual Time 6:57 AM CST 5:25 PM CST
Civil Twilight 6:32 AM CST 5:50 PM CST
Nautical Twilight 6:03 AM CST 6:19 PM CST
Astronomical Twilight 5:34 AM CST 6:48 PM CST
Moon 12:59 PM CST (12/10) 12:46 AM CST (12/10)
Length of Visible Light 11h 18m
Length of Day
10h 27m
Waxing Gibbous, 62% of the Moon is Illuminated
Dec 10
Waxing Gibbous
Dec 17
Full
Dec 25
Last Quarter
Jan 1
New
Jan 7
First Quarter

Hourly Weather History & Observations

Time (CST) Temp. Dew Point Humidity Pressure Visibility Wind Dir Wind Speed Gust Speed Precip Events Conditions
12:15 AM 62.6 °F 60.8 °F 94% 30.12 in 5.0 mi NNE 21.9 mph 28.8 mph N/A   Overcast
12:35 AM 62.6 °F 59.0 °F 88% 30.12 in 5.0 mi North 25.3 mph 33.4 mph N/A   Overcast
12:55 AM 60.8 °F 59.0 °F 94% 30.13 in 5.0 mi North 24.2 mph 32.2 mph N/A   Overcast
1:15 AM 60.8 °F 59.0 °F 94% 30.14 in 3.0 mi North 24.2 mph 29.9 mph N/A   Overcast
1:35 AM 60.8 °F 57.2 °F 88% 30.14 in 5.0 mi North 20.7 mph 31.1 mph N/A   Overcast
1:55 AM 59.0 °F 57.2 °F 94% 30.15 in 4.0 mi North 21.9 mph 31.1 mph N/A   Overcast
2:15 AM 59.0 °F 57.2 °F 94% 30.16 in 6.0 mi NNE 21.9 mph 29.9 mph N/A   Overcast
2:35 AM 59.0 °F 57.2 °F 94% 30.16 in 8.0 mi NNE 18.4 mph 32.2 mph N/A   Overcast
2:55 AM 59.0 °F 57.2 °F 94% 30.16 in 8.0 mi NNE 25.3 mph 38.0 mph N/A   Overcast
3:15 AM 59.0 °F 55.4 °F 88% 30.16 in 7.0 mi NNE 19.6 mph 35.7 mph N/A   Overcast
3:35 AM 57.2 °F 55.4 °F 94% 30.16 in 7.0 mi NNE 24.2 mph 32.2 mph N/A   Overcast
3:55 AM 57.2 °F 55.4 °F 94% 30.18 in 8.0 mi NNE 23.0 mph 36.8 mph N/A   Mostly Cloudy
4:15 AM 57.2 °F 55.4 °F 94% 30.19 in 7.0 mi NNE 23.0 mph 35.7 mph N/A   Overcast
4:35 AM 57.2 °F 55.4 °F 94% 30.21 in 7.0 mi NNE 21.9 mph 35.7 mph N/A   Overcast
4:55 AM 57.2 °F 53.6 °F 88% 30.22 in 6.0 mi NNE 18.4 mph 38.0 mph N/A   Overcast
5:15 AM 57.2 °F 53.6 °F 88% 30.23 in 6.0 mi NE 18.4 mph 31.1 mph N/A   Overcast
5:35 AM 57.2 °F 53.6 °F 88% 30.23 in 7.0 mi NNE 20.7 mph 32.2 mph N/A   Mostly Cloudy
5:55 AM 57.2 °F 53.6 °F 88% 30.24 in 10.0 mi NNE 18.4 mph 32.2 mph N/A   Overcast
6:15 AM 57.2 °F 53.6 °F 88% 30.24 in 9.0 mi NNE 20.7 mph 32.2 mph N/A   Overcast
6:35 AM 57.2 °F 53.6 °F 88% 30.25 in 10.0 mi NNE 21.9 mph 33.4 mph N/A   Overcast
6:55 AM 57.2 °F 51.8 °F 82% 30.25 in 10.0 mi North 24.2 mph 34.5 mph N/A   Overcast
7:15 AM 57.2 °F 51.8 °F 82% 30.26 in 9.0 mi NNE 18.4 mph 33.4 mph N/A   Overcast
7:35 AM 57.2 °F 51.8 °F 82% 30.28 in - NNE 21.9 mph 34.5 mph N/A   Overcast
7:55 AM 55.4 °F 51.8 °F 88% 30.27 in 9.0 mi NNE 19.6 mph 33.4 mph N/A   Overcast
8:15 AM 57.2 °F 50.0 °F 77% 30.27 in 10.0 mi NNE 20.7 mph 32.2 mph N/A   Overcast
8:35 AM 57.2 °F 50.0 °F 77% 30.28 in 9.0 mi NNE 20.7 mph 33.4 mph N/A   Overcast
8:55 AM 57.2 °F 50.0 °F 77% 30.28 in 9.0 mi NNE 19.6 mph 32.2 mph N/A   Overcast
9:15 AM 57.2 °F 50.0 °F 77% 30.32 in 9.0 mi NNE 16.1 mph 29.9 mph N/A   Overcast
9:35 AM 57.2 °F 50.0 °F 77% 30.32 in 9.0 mi NNE 17.3 mph 27.6 mph N/A   Overcast
9:55 AM 57.2 °F 50.0 °F 77% 30.32 in 8.0 mi NNE 17.3 mph 23.0 mph N/A   Overcast
10:15 AM 57.2 °F 50.0 °F 77% 30.33 in 9.0 mi NNE 15.0 mph 25.3 mph N/A   Overcast
10:35 AM 57.2 °F 50.0 °F 77% 30.33 in 9.0 mi NNE 15.0 mph 29.9 mph N/A   Overcast
10:55 AM 57.2 °F 50.0 °F 77% 30.32 in 8.0 mi NNE 18.4 mph 32.2 mph N/A   Overcast
11:15 AM 57.2 °F 48.2 °F 72% 30.32 in 9.0 mi NE 19.6 mph 29.9 mph N/A   Overcast
11:35 AM 57.2 °F 50.0 °F 77% 30.31 in 9.0 mi NNE 13.8 mph 24.2 mph N/A   Overcast
11:55 AM 57.2 °F 48.2 °F 72% 30.30 in 9.0 mi NE 18.4 mph 33.4 mph N/A   Overcast
12:15 PM 57.2 °F 50.0 °F 77% 30.30 in 8.0 mi NE 12.7 mph 27.6 mph N/A   Overcast
12:35 PM 57.2 °F 50.0 °F 77% 30.29 in 8.0 mi NE 15.0 mph 27.6 mph N/A   Overcast
12:55 PM 59.0 °F 50.0 °F 72% 30.28 in 8.0 mi NNE 11.5 mph 21.9 mph N/A   Overcast
1:15 PM 57.2 °F 48.2 °F 72% 30.28 in 9.0 mi NNE 11.5 mph 23.0 mph N/A   Overcast
1:35 PM 57.2 °F 48.2 °F 72% 30.27 in 9.0 mi NNE 15.0 mph 24.2 mph N/A   Overcast
1:55 PM 59.0 °F 50.0 °F 72% 30.27 in 9.0 mi NE 13.8 mph 25.3 mph N/A   Overcast
2:15 PM 59.0 °F 50.0 °F 72% 30.28 in 9.0 mi NNE 11.5 mph 20.7 mph N/A   Overcast
2:35 PM 57.2 °F 50.0 °F 77% 30.28 in 9.0 mi NNE 9.2 mph 18.4 mph N/A   Overcast
2:55 PM 59.0 °F 48.2 °F 67% 30.28 in 10.0 mi NNE 11.5 mph 20.7 mph N/A   Overcast
3:15 PM 59.0 °F 48.2 °F 67% 30.28 in 9.0 mi NNE 12.7 mph 20.7 mph N/A   Overcast
3:35 PM 59.0 °F 48.2 °F 67% 30.28 in 9.0 mi NNE 9.2 mph 18.4 mph N/A   Overcast
3:55 PM 59.0 °F 48.2 °F 67% 30.28 in 9.0 mi NE 11.5 mph 19.6 mph N/A   Overcast
4:15 PM 59.0 °F 48.2 °F 67% 30.27 in 10.0 mi NE 12.7 mph 20.7 mph N/A   Overcast
4:35 PM 59.0 °F 48.2 °F 67% 30.27 in 10.0 mi NE 11.5 mph 23.0 mph N/A   Overcast
4:55 PM 59.0 °F 48.2 °F 67% 30.28 in 9.0 mi NNE 10.4 mph 19.6 mph N/A   Overcast
5:15 PM 59.0 °F 48.2 °F 67% 30.28 in 10.0 mi NNE 11.5 mph 20.7 mph N/A   Overcast
5:35 PM 59.0 °F 48.2 °F 67% 30.28 in 10.0 mi NNE 9.2 mph 23.0 mph N/A   Overcast
5:55 PM 59.0 °F 48.2 °F 67% 30.28 in 10.0 mi NNE 10.4 mph 20.7 mph N/A   Overcast
6:15 PM 59.0 °F 48.2 °F 67% 30.28 in 10.0 mi NNE 9.2 mph 21.9 mph N/A   Overcast
6:35 PM 59.0 °F 48.2 °F 67% 30.28 in 10.0 mi NNE 11.5 mph 21.9 mph N/A   Overcast
6:55 PM 59.0 °F 50.0 °F 72% 30.28 in 10.0 mi NE 16.1 mph 23.0 mph N/A   Overcast
7:15 PM 59.0 °F 48.2 °F 67% 30.29 in 10.0 mi NE 12.7 mph 21.9 mph N/A   Overcast
7:35 PM 59.0 °F 50.0 °F 72% 30.29 in 10.0 mi NE 15.0 mph 24.2 mph N/A   Overcast
7:55 PM 59.0 °F 50.0 °F 72% 30.29 in 10.0 mi NE 17.3 mph 25.3 mph N/A   Overcast
8:15 PM 59.0 °F 50.0 °F 72% 30.29 in 10.0 mi ENE 20.7 mph - N/A   Overcast
8:35 PM 59.0 °F 48.2 °F 67% 30.30 in 10.0 mi NNE 12.7 mph 21.9 mph N/A   Overcast
8:55 PM 59.0 °F 48.2 °F 67% 30.30 in 10.0 mi ENE 16.1 mph 24.2 mph N/A   Mostly Cloudy
9:15 PM 59.0 °F 50.0 °F 72% 30.30 in 10.0 mi ENE 17.3 mph - N/A   Overcast
9:35 PM 60.8 °F 50.0 °F 68% 30.30 in 10.0 mi ENE 17.3 mph - N/A   Overcast
9:55 PM 60.8 °F 48.2 °F 63% 30.31 in 10.0 mi ENE 15.0 mph - N/A   Overcast
10:15 PM 60.8 °F 50.0 °F 68% 30.31 in 10.0 mi ENE 13.8 mph 23.0 mph N/A   Overcast
10:35 PM 60.8 °F 50.0 °F 68% 30.31 in 10.0 mi East 12.7 mph 20.7 mph N/A   Overcast
10:55 PM 60.8 °F 50.0 °F 68% 30.31 in 10.0 mi ENE 11.5 mph - N/A   Overcast
11:15 PM 60.8 °F 50.0 °F 68% 30.31 in 10.0 mi East 11.5 mph - N/A   Overcast
11:35 PM 60.8 °F 50.0 °F 68% 30.30 in 10.0 mi East 10.4 mph 17.3 mph N/A   Overcast
11:55 PM 62.6 °F 50.0 °F 63% 30.30 in 10.0 mi ENE 8.1 mph - N/A   Overcast